Roswell, NM

1:53 AM MDT on May 30, 2017 (GMT -0600)
Roswell Industrial

Weather History for KROW - October, 2013

Change the Weather History Date:

Saturday, October 19, 2013

  Actual Average Record
Temperature  
Mean Temperature 49 °F 60 °F  
Max Temperature 69 °F 75 °F 91 °F (2016)
Min Temperature 29 °F 45 °F 26 °F (1968)
Degree Days  
Heating Degree Days 16 6  
Month to date heating degree days 93 67  
Since 1 July heating degree days 93 83  
Cooling Degree Days 0 1  
Month to date cooling degree days 34 33  
Year to date cooling degree days 2174 1784  
Moisture  
Dew Point 30 °F    
Average Humidity 51    
Maximum Humidity 78    
Minimum Humidity 23    
Precipitation  
Precipitation 0.00 in 0.04 in 1.47 in (1983)
Month to date precipitation 0.05 0.79  
Year to date precipitation 8.39 11.25  
Sea Level Pressure  
Sea Level Pressure 30.09 in    
Wind  
Wind Speed 6 mph (South)    
Max Wind Speed 16 mph    
Max Gust Speed 22 mph    
Visibility 10 miles    
Events      
T = Trace of Precipitation, MM = Missing Value Source: NWS Daily Summary

Daily Weather History Graph

Daily Weather History Graph

Search for Another Location

Airport or City:

Trip Planner

Search our weather history database for the weather conditions in past years. The results will help you decide how hot, cold, wet, or windy it might be!

Date:

Astronomy

Oct. 19, 2013 Rise Set
Actual Time 7:05 AM MDT 6:19 PM MDT
Civil Twilight 6:40 AM MDT 6:44 PM MDT
Nautical Twilight 6:11 AM MDT 7:13 PM MDT
Astronomical Twilight 5:43 AM MDT 7:42 PM MDT
Moon 6:52 PM MDT (10/19) 7:43 AM MDT (10/19)
Length of Visible Light 12h 03m
Length of Day
11h 13m
Full, 99% of the Moon is Illuminated
Oct 19
Full
Oct 26
Last Quarter
Nov 3
New
Nov 9
First Quarter
Nov 17
Full

Hourly Weather History & Observations

Time (MDT) Temp. Windchill Dew Point Humidity Pressure Visibility Wind Dir Wind Speed Gust Speed Precip Events Conditions
12:51 AM 39.0 °F - 28.9 °F 67% 30.19 in 10.0 mi Calm Calm - N/A   Clear
1:51 AM 36.0 °F - 28.0 °F 73% 30.20 in 10.0 mi Calm Calm - N/A   Clear
2:51 AM 34.0 °F 29.8 °F 26.1 °F 73% 30.20 in 10.0 mi West 4.6 mph - N/A   Clear
3:51 AM 36.0 °F 33.3 °F 28.0 °F 73% 30.19 in 10.0 mi NW 3.5 mph - N/A   Clear
4:51 AM 34.0 °F 31.0 °F 27.0 °F 75% 30.20 in 10.0 mi West 3.5 mph - N/A   Clear
5:51 AM 30.9 °F 27.5 °F 25.0 °F 79% 30.22 in 10.0 mi WSW 3.5 mph - N/A   Clear
6:51 AM 30.9 °F 27.5 °F 25.0 °F 79% 30.22 in 10.0 mi West 3.5 mph - N/A   Clear
7:51 AM 33.1 °F - 27.0 °F 78% 30.22 in 10.0 mi Calm Calm - N/A   Clear
8:51 AM 39.9 °F 37.8 °F 30.0 °F 68% 30.22 in 10.0 mi ESE 3.5 mph - N/A   Clear
9:51 AM 46.0 °F 42.5 °F 30.9 °F 56% 30.20 in 10.0 mi SE 6.9 mph - N/A   Clear
10:51 AM 51.1 °F - 30.9 °F 46% 30.17 in 10.0 mi Variable 4.6 mph - N/A   Clear
11:51 AM 55.9 °F - 30.0 °F 37% 30.12 in 10.0 mi South 9.2 mph - N/A   Clear
12:51 PM 60.1 °F - 28.9 °F 31% 30.08 in 10.0 mi South 11.5 mph 16.1 mph N/A   Clear
1:51 PM 64.0 °F - 30.9 °F 29% 30.03 in 10.0 mi SSE 11.5 mph - N/A   Clear
2:51 PM 66.9 °F - 28.9 °F 24% 29.99 in 10.0 mi South 11.5 mph - N/A   Clear
3:51 PM 69.1 °F - 30.0 °F 23% 29.96 in 10.0 mi South 12.7 mph - N/A   Clear
4:51 PM 69.1 °F - 30.9 °F 24% 29.94 in 10.0 mi SSE 12.7 mph - N/A   Clear
5:51 PM 66.0 °F - 30.9 °F 27% 29.95 in 10.0 mi SE 5.8 mph - N/A   Clear
6:51 PM 57.9 °F - 33.1 °F 39% 29.97 in 10.0 mi SSE 3.5 mph - N/A   Clear
7:51 PM 53.1 °F - 33.1 °F 47% 29.99 in 10.0 mi South 4.6 mph - N/A   Clear
8:51 PM 50.0 °F - 34.0 °F 54% 29.98 in 10.0 mi SSW 5.8 mph - N/A   Clear
9:51 PM 50.0 °F - 34.0 °F 54% 29.97 in 10.0 mi South 3.5 mph - N/A   Clear
10:51 PM 45.0 °F 41.8 °F 33.1 °F 63% 29.97 in 10.0 mi SW 5.8 mph - N/A   Clear
11:51 PM 41.0 °F - 30.0 °F 65% 29.96 in 10.0 mi Calm Calm - N/A   Clear